Time,TemperatureF,DewpointF,PressureIn,WindDirection,WindDirectionDegrees,WindSpeedMPH,WindSpeedGustMPH,Humidity,HourlyPrecipIn,Conditions,Clouds,dailyrainin,SoftwareType,DateUTC
2013-08-05 00:02:00,64.7,51.4,29.89,South,180,3.0,-999.0,62,0.00,,,0.00,Wunderground v.1.15,2013-08-05 07:02:00,
2013-08-05 00:03:00,66.4,51.2,29.89,SSW,205,4.0,9.0,58,0.00,,,0.00,Wunderground v.1.15,2013-08-05 07:03:00,
2013-08-05 00:07:00,64.7,51.4,29.89,South,180,3.0,-999.0,62,0.00,,,0.00,Wunderground v.1.15,2013-08-05 07:07:00,
2013-08-05 00:09:00,66.0,51.3,29.89,SE,141,3.0,9.0,59,0.00,,,0.00,Wunderground v.1.15,2013-08-05 07:09:00,
2013-08-05 00:12:00,64.7,51.4,29.89,South,180,3.0,-999.0,62,0.00,,,0.00,Wunderground v.1.15,2013-08-05 07:12:00,
2013-08-05 00:14:00,65.7,51.4,29.89,South,189,3.0,3.0,60,0.00,,,0.00,Wunderground v.1.15,2013-08-05 07:14:00,
2013-08-05 00:17:00,64.7,51.4,29.89,South,180,3.0,-999.0,62,0.00,,,0.00,Wunderground v.1.15,2013-08-05 07:17:00,
2013-08-05 00:19:00,65.4,51.6,29.89,SW,217,3.0,6.0,61,0.00,,,0.00,Wunderground v.1.15,2013-08-05 07:19:00,
2013-08-05 00:22:00,64.7,51.4,29.89,South,180,3.0,-999.0,62,0.00,,,0.00,Wunderground v.1.15,2013-08-05 07:22:00,
2013-08-05 00:24:00,65.2,51.4,29.89,SSW,195,3.0,4.0,61,0.00,,,0.00,Wunderground v.1.15,2013-08-05 07:24:00,
2013-08-05 00:27:00,64.7,51.4,29.89,South,180,3.0,-999.0,62,0.00,,,0.00,Wunderground v.1.15,2013-08-05 07:27:00,
2013-08-05 00:30:00,64.9,51.1,29.89,SSW,196,3.0,4.0,61,0.00,,,0.00,Wunderground v.1.15,2013-08-05 07:30:00,
2013-08-05 00:32:00,64.7,51.4,29.89,South,180,3.0,-999.0,62,0.00,,,0.00,Wunderground v.1.15,2013-08-05 07:32:00,
2013-08-05 00:35:00,64.7,51.4,29.89,SSW,206,4.0,11.0,62,0.00,,,0.00,Wunderground v.1.15,2013-08-05 07:35:00,
2013-08-05 00:37:00,64.7,51.4,29.89,South,180,3.0,-999.0,62,0.00,,,0.00,Wunderground v.1.15,2013-08-05 07:37:00,
2013-08-05 00:40:00,64.4,51.1,29.89,SSE,155,3.0,4.0,62,0.00,,,0.00,Wunderground v.1.15,2013-08-05 07:40:00,
2013-08-05 00:42:00,64.7,51.4,29.89,South,180,3.0,-999.0,62,0.00,,,0.00,Wunderground v.1.15,2013-08-05 07:42:00,
2013-08-05 00:46:00,64.2,51.3,29.89,SSW,192,2.0,4.0,63,0.00,,,0.00,Wunderground v.1.15,2013-08-05 07:46:00,
2013-08-05 00:47:00,63.7,51.7,29.89,South,180,2.0,-999.0,65,0.00,,,0.00,Wunderground v.1.15,2013-08-05 07:47:00,
2013-08-05 00:52:00,64.0,51.6,29.89,SSW,211,2.0,4.0,64,0.00,,,0.00,Wunderground v.1.15,2013-08-05 07:52:00,
2013-08-05 00:57:00,63.9,51.9,29.89,SSE,164,2.0,4.0,65,0.00,,,0.00,Wunderground v.1.15,2013-08-05 07:57:00,
2013-08-05 01:02:00,63.7,51.7,29.89,South,180,2.0,-999.0,65,0.00,,,0.00,Wunderground v.1.15,2013-08-05 08:02:00,
2013-08-05 01:03:00,63.7,51.7,29.89,South,177,2.0,4.0,65,0.00,,,0.00,Wunderground v.1.15,2013-08-05 08:03:00,
2013-08-05 01:07:00,63.7,51.7,29.89,South,180,2.0,-999.0,65,0.00,,,0.00,Wunderground v.1.15,2013-08-05 08:07:00,
2013-08-05 01:09:00,63.5,51.9,29.89,SSE,154,2.0,4.0,66,0.00,,,0.00,Wunderground v.1.15,2013-08-05 08:09:00,
2013-08-05 01:12:00,63.7,51.7,29.89,South,180,2.0,-999.0,65,0.00,,,0.00,Wunderground v.1.15,2013-08-05 08:12:00,
2013-08-05 01:14:00,63.4,51.4,29.89,South,175,2.0,3.0,65,0.00,,,0.00,Wunderground v.1.15,2013-08-05 08:14:00,
2013-08-05 01:17:00,63.1,51.1,29.89,South,180,2.0,-999.0,65,0.00,,,0.00,Wunderground v.1.15,2013-08-05 08:17:00,
2013-08-05 01:20:00,63.3,51.7,29.89,South,190,1.0,1.0,66,0.00,,,0.00,Wunderground v.1.15,2013-08-05 08:20:00,
2013-08-05 01:22:00,63.1,51.1,29.89,South,180,2.0,-999.0,65,0.00,,,0.00,Wunderground v.1.15,2013-08-05 08:22:00,
2013-08-05 01:25:00,63.2,51.6,29.89,SSW,193,1.0,2.0,66,0.00,,,0.00,Wunderground v.1.15,2013-08-05 08:25:00,
2013-08-05 01:27:00,63.1,51.1,29.89,South,180,2.0,-999.0,65,0.00,,,0.00,Wunderground v.1.15,2013-08-05 08:27:00,
2013-08-05 01:30:00,63.1,51.6,29.89,South,170,2.0,2.0,66,0.00,,,0.00,Wunderground v.1.15,2013-08-05 08:30:00,
2013-08-05 01:32:00,63.1,51.1,29.89,South,180,2.0,-999.0,65,0.00,,,0.00,Wunderground v.1.15,2013-08-05 08:32:00,
2013-08-05 01:37:00,63.1,51.1,29.89,South,180,2.0,-999.0,65,0.00,,,0.00,Wunderground v.1.15,2013-08-05 08:37:00,
2013-08-05 01:38:00,63.1,51.6,29.89,South,183,2.0,9.0,66,0.00,,,0.00,Wunderground v.1.15,2013-08-05 08:38:00,
2013-08-05 01:42:00,63.1,51.1,29.89,South,180,2.0,-999.0,65,0.00,,,0.00,Wunderground v.1.15,2013-08-05 08:42:00,
2013-08-05 01:44:00,62.9,51.4,29.89,SSE,168,2.0,4.0,66,0.00,,,0.00,Wunderground v.1.15,2013-08-05 08:44:00,
2013-08-05 01:47:00,62.2,51.9,29.89,South,180,2.0,-999.0,69,0.00,,,0.00,Wunderground v.1.15,2013-08-05 08:47:00,
2013-08-05 01:49:00,62.7,51.6,29.89,SSW,203,2.0,5.0,67,0.00,,,0.00,Wunderground v.1.15,2013-08-05 08:49:00,
2013-08-05 01:52:00,62.2,51.9,29.89,South,180,2.0,-999.0,69,0.00,,,0.00,Wunderground v.1.15,2013-08-05 08:52:00,
2013-08-05 01:55:00,62.6,51.5,29.89,South,180,2.0,3.0,67,0.00,,,0.00,Wunderground v.1.15,2013-08-05 08:55:00,
2013-08-05 01:57:00,62.2,51.9,29.89,South,180,2.0,-999.0,69,0.00,,,0.00,Wunderground v.1.15,2013-08-05 08:57:00,
2013-08-05 02:00:00,62.3,52.0,29.89,SSE,154,2.0,2.0,69,0.00,,,0.00,Wunderground v.1.15,2013-08-05 09:00:00,
2013-08-05 02:02:00,62.2,51.9,29.89,South,180,2.0,-999.0,69,0.00,,,0.00,Wunderground v.1.15,2013-08-05 09:02:00,
2013-08-05 02:05:00,62.0,52.1,29.89,SSW,198,2.0,4.0,70,0.00,,,0.00,Wunderground v.1.15,2013-08-05 09:05:00,
2013-08-05 02:07:00,62.2,51.9,29.89,South,180,2.0,-999.0,69,0.00,,,0.00,Wunderground v.1.15,2013-08-05 09:07:00,
2013-08-05 02:10:00,61.7,51.8,29.89,SSE,167,2.0,2.0,70,0.00,,,0.00,Wunderground v.1.15,2013-08-05 09:10:00,
2013-08-05 02:12:00,62.2,51.9,29.89,South,180,2.0,-999.0,69,0.00,,,0.00,Wunderground v.1.15,2013-08-05 09:12:00,
2013-08-05 02:16:00,61.4,52.3,29.89,SW,222,3.0,5.0,72,0.00,,,0.00,Wunderground v.1.15,2013-08-05 09:16:00,
2013-08-05 02:17:00,60.2,52.2,29.89,SSE,158,2.0,-999.0,75,0.00,,,0.00,Wunderground v.1.15,2013-08-05 09:17:00,
2013-08-05 02:22:00,60.9,52.2,29.89,South,178,3.0,5.0,73,0.00,,,0.00,Wunderground v.1.15,2013-08-05 09:22:00,
2013-08-05 02:27:00,60.5,52.2,29.89,SSE,162,3.0,5.0,74,0.00,,,0.00,Wunderground v.1.15,2013-08-05 09:27:00,
2013-08-05 02:32:00,60.2,52.2,29.89,SSE,158,2.0,-999.0,75,0.00,,,0.00,Wunderground v.1.15,2013-08-05 09:32:00,
2013-08-05 02:33:00,60.2,52.2,29.89,SSW,207,2.0,7.0,75,0.00,,,0.00,Wunderground v.1.15,2013-08-05 09:33:00,
2013-08-05 02:37:00,60.2,52.2,29.89,SSE,158,2.0,-999.0,75,0.00,,,0.00,Wunderground v.1.15,2013-08-05 09:37:00,
2013-08-05 02:39:00,60.0,52.4,29.89,SSE,162,1.0,7.0,76,0.00,,,0.00,Wunderground v.1.15,2013-08-05 09:39:00,
2013-08-05 02:42:00,60.2,52.2,29.89,SSE,158,2.0,-999.0,75,0.00,,,0.00,Wunderground v.1.15,2013-08-05 09:42:00,
2013-08-05 02:45:00,59.8,52.6,29.89,SSE,152,2.0,5.0,77,0.00,,,0.00,Wunderground v.1.15,2013-08-05 09:45:00,
2013-08-05 02:47:00,59.4,52.5,29.89,SSE,158,2.0,-999.0,78,0.00,,,0.00,Wunderground v.1.15,2013-08-05 09:47:00,
2013-08-05 02:49:00,59.6,52.4,29.89,SSE,156,3.0,3.0,77,0.00,,,0.00,Wunderground v.1.15,2013-08-05 09:49:00,
2013-08-05 02:52:00,59.4,52.5,29.89,SSE,158,2.0,-999.0,78,0.00,,,0.00,Wunderground v.1.15,2013-08-05 09:52:00,
2013-08-05 02:56:00,59.5,52.6,29.89,South,175,2.0,3.0,78,0.00,,,0.00,Wunderground v.1.15,2013-08-05 09:56:00,
2013-08-05 02:57:00,59.4,52.5,29.89,SSE,158,2.0,-999.0,78,0.00,,,0.00,Wunderground v.1.15,2013-08-05 09:57:00,
2013-08-05 03:01:00,59.4,52.5,29.89,South,182,2.0,4.0,78,0.00,,,0.00,Wunderground v.1.15,2013-08-05 10:01:00,
2013-08-05 03:02:00,59.4,52.5,29.89,SSE,158,2.0,-999.0,78,0.00,,,0.00,Wunderground v.1.15,2013-08-05 10:02:00,
2013-08-05 03:07:00,59.4,52.5,29.88,South,172,3.0,5.0,78,0.00,,,0.00,Wunderground v.1.15,2013-08-05 10:07:00,
2013-08-05 03:12:00,59.3,52.4,29.88,South,181,3.0,4.0,78,0.00,,,0.00,Wunderground v.1.15,2013-08-05 10:12:00,
2013-08-05 03:17:00,59.1,52.6,29.88,South,180,2.0,-999.0,79,0.00,,,0.00,Wunderground v.1.15,2013-08-05 10:17:00,
2013-08-05 03:18:00,59.3,52.4,29.89,South,191,3.0,5.0,78,0.00,,,0.00,Wunderground v.1.15,2013-08-05 10:18:00,
2013-08-05 03:22:00,59.1,52.6,29.88,South,180,2.0,-999.0,79,0.00,,,0.00,Wunderground v.1.15,2013-08-05 10:22:00,
2013-08-05 03:24:00,59.2,52.7,29.88,South,187,2.0,3.0,79,0.00,,,0.00,Wunderground v.1.15,2013-08-05 10:24:00,
2013-08-05 03:27:00,59.1,52.6,29.88,South,180,2.0,-999.0,79,0.00,,,0.00,Wunderground v.1.15,2013-08-05 10:27:00,
2013-08-05 03:30:00,59.1,52.6,29.88,South,172,2.0,2.0,79,0.00,,,0.00,Wunderground v.1.15,2013-08-05 10:30:00,
2013-08-05 03:32:00,59.1,52.6,29.88,South,180,2.0,-999.0,79,0.00,,,0.00,Wunderground v.1.15,2013-08-05 10:32:00,
2013-08-05 03:35:00,59.0,52.5,29.88,South,172,2.0,7.0,79,0.00,,,0.00,Wunderground v.1.15,2013-08-05 10:35:00,
2013-08-05 03:37:00,59.1,52.6,29.88,South,180,2.0,-999.0,79,0.00,,,0.00,Wunderground v.1.15,2013-08-05 10:37:00,
2013-08-05 03:40:00,58.9,52.7,29.88,South,185,2.0,4.0,80,0.00,,,0.00,Wunderground v.1.15,2013-08-05 10:40:00,
2013-08-05 03:42:00,59.1,52.6,29.88,South,180,2.0,-999.0,79,0.00,,,0.00,Wunderground v.1.15,2013-08-05 10:42:00,
2013-08-05 03:46:00,58.8,52.6,29.88,South,174,3.0,5.0,80,0.00,,,0.00,Wunderground v.1.15,2013-08-05 10:46:00,
2013-08-05 03:47:00,58.4,52.6,29.88,South,180,2.0,-999.0,81,0.00,,,0.00,Wunderground v.1.15,2013-08-05 10:47:00,
2013-08-05 03:52:00,58.6,52.8,29.88,South,177,2.0,2.0,81,0.00,,,0.00,Wunderground v.1.15,2013-08-05 10:52:00,
2013-08-05 03:56:00,58.5,52.7,29.89,SSW,195,1.0,2.0,81,0.00,,,0.00,Wunderground v.1.15,2013-08-05 10:56:00,
2013-08-05 03:57:00,58.4,52.6,29.88,South,180,2.0,-999.0,81,0.00,,,0.00,Wunderground v.1.15,2013-08-05 10:57:00,
2013-08-05 04:02:00,58.4,52.6,29.88,SSW,194,2.0,4.0,81,0.00,,,0.00,Wunderground v.1.15,2013-08-05 11:02:00,
2013-08-05 04:07:00,58.4,52.6,29.88,South,180,2.0,-999.0,81,0.00,,,0.00,Wunderground v.1.15,2013-08-05 11:07:00,
2013-08-05 04:08:00,58.2,52.4,29.88,SSE,162,2.0,4.0,81,0.00,,,0.00,Wunderground v.1.15,2013-08-05 11:08:00,
2013-08-05 04:12:00,58.4,52.6,29.88,South,180,2.0,-999.0,81,0.00,,,0.00,Wunderground v.1.15,2013-08-05 11:12:00,
2013-08-05 04:13:00,58.0,52.5,29.88,SSW,192,2.0,3.0,82,0.00,,,0.00,Wunderground v.1.15,2013-08-05 11:13:00,
2013-08-05 04:17:00,57.9,52.4,29.88,South,180,2.0,-999.0,82,0.00,,,0.00,Wunderground v.1.15,2013-08-05 11:17:00,
2013-08-05 04:19:00,57.9,52.4,29.88,SSE,167,2.0,3.0,82,0.00,,,0.00,Wunderground v.1.15,2013-08-05 11:19:00,
2013-08-05 04:22:00,57.9,52.4,29.88,South,180,2.0,-999.0,82,0.00,,,0.00,Wunderground v.1.15,2013-08-05 11:22:00,
2013-08-05 04:25:00,57.9,52.4,29.88,SSE,166,2.0,4.0,82,0.00,,,0.00,Wunderground v.1.15,2013-08-05 11:25:00,
2013-08-05 04:27:00,57.9,52.4,29.88,South,180,2.0,-999.0,82,0.00,,,0.00,Wunderground v.1.15,2013-08-05 11:27:00,
2013-08-05 04:31:00,57.8,52.3,29.88,SSW,203,1.0,7.0,82,0.00,,,0.00,Wunderground v.1.15,2013-08-05 11:31:00,
2013-08-05 04:32:00,57.9,52.4,29.88,South,180,2.0,-999.0,82,0.00,,,0.00,Wunderground v.1.15,2013-08-05 11:32:00,
2013-08-05 04:37:00,57.8,52.3,29.89,South,170,2.0,7.0,82,0.00,,,0.00,Wunderground v.1.15,2013-08-05 11:37:00,
2013-08-05 04:42:00,57.9,52.4,29.88,South,180,2.0,-999.0,82,0.00,,,0.00,Wunderground v.1.15,2013-08-05 11:42:00,
2013-08-05 04:44:00,57.9,52.4,29.89,SSE,166,2.0,4.0,82,0.00,,,0.00,Wunderground v.1.15,2013-08-05 11:44:00,
2013-08-05 04:47:00,57.8,52.3,29.89,South,180,2.0,-999.0,82,0.00,,,0.00,Wunderground v.1.15,2013-08-05 11:47:00,
2013-08-05 04:50:00,57.9,52.1,29.89,South,189,2.0,2.0,81,0.00,,,0.00,Wunderground v.1.15,2013-08-05 11:50:00,
2013-08-05 04:52:00,57.8,52.3,29.89,South,180,2.0,-999.0,82,0.00,,,0.00,Wunderground v.1.15,2013-08-05 11:52:00,
2013-08-05 04:55:00,57.9,52.4,29.89,South,174,2.0,5.0,82,0.00,,,0.00,Wunderground v.1.15,2013-08-05 11:55:00,
2013-08-05 04:57:00,57.8,52.3,29.89,South,180,2.0,-999.0,82,0.00,,,0.00,Wunderground v.1.15,2013-08-05 11:57:00,
2013-08-05 05:01:00,57.8,52.0,29.89,South,170,2.0,3.0,81,0.00,,,0.00,Wunderground v.1.15,2013-08-05 12:01:00,
2013-08-05 05:02:00,57.8,52.3,29.89,South,180,2.0,-999.0,82,0.00,,,0.00,Wunderground v.1.15,2013-08-05 12:02:00,
2013-08-05 05:07:00,57.8,52.3,29.89,South,180,2.0,-999.0,82,0.00,,,0.00,Wunderground v.1.15,2013-08-05 12:07:00,
2013-08-05 05:09:00,57.6,52.1,29.89,South,175,3.0,6.0,82,0.00,,,0.00,Wunderground v.1.15,2013-08-05 12:09:00,
2013-08-05 05:12:00,57.8,52.3,29.89,South,180,2.0,-999.0,82,0.00,,,0.00,Wunderground v.1.15,2013-08-05 12:12:00,
2013-08-05 05:14:00,57.4,52.3,29.89,SSE,160,3.0,4.0,83,0.00,,,0.00,Wunderground v.1.15,2013-08-05 12:14:00,
2013-08-05 05:17:00,56.7,51.9,29.90,South,180,2.0,-999.0,84,0.00,,,0.00,Wunderground v.1.15,2013-08-05 12:17:00,
2013-08-05 05:18:00,57.2,52.1,29.89,SSW,198,3.0,7.0,83,0.00,,,0.00,Wunderground v.1.15,2013-08-05 12:18:00,
2013-08-05 05:22:00,56.7,51.9,29.90,South,180,2.0,-999.0,84,0.00,,,0.00,Wunderground v.1.15,2013-08-05 12:22:00,
2013-08-05 05:24:00,57.0,51.9,29.89,South,183,3.0,4.0,83,0.00,,,0.00,Wunderground v.1.15,2013-08-05 12:24:00,
2013-08-05 05:27:00,56.7,51.9,29.90,South,180,2.0,-999.0,84,0.00,,,0.00,Wunderground v.1.15,2013-08-05 12:27:00,
2013-08-05 05:28:00,56.8,51.7,29.90,SSE,156,3.0,6.0,83,0.00,,,0.00,Wunderground v.1.15,2013-08-05 12:28:00,
2013-08-05 05:32:00,56.7,51.9,29.90,South,180,2.0,-999.0,84,0.00,,,0.00,Wunderground v.1.15,2013-08-05 12:32:00,
2013-08-05 05:33:00,56.7,51.9,29.90,SSE,168,1.0,6.0,84,0.00,,,0.00,Wunderground v.1.15,2013-08-05 12:33:00,
2013-08-05 05:37:00,56.7,51.9,29.90,South,180,2.0,-999.0,84,0.00,,,0.00,Wunderground v.1.15,2013-08-05 12:37:00,
2013-08-05 05:39:00,56.6,51.8,29.90,SSE,163,1.0,6.0,84,0.00,,,0.00,Wunderground v.1.15,2013-08-05 12:39:00,
2013-08-05 05:42:00,56.7,51.9,29.90,South,180,2.0,-999.0,84,0.00,,,0.00,Wunderground v.1.15,2013-08-05 12:42:00,
2013-08-05 05:45:00,56.4,51.9,29.90,SSE,152,3.0,4.0,85,0.00,,,0.00,Wunderground v.1.15,2013-08-05 12:45:00,
2013-08-05 05:47:00,56.1,52.0,29.90,South,180,3.0,-999.0,86,0.00,,,0.00,Wunderground v.1.15,2013-08-05 12:47:00,
2013-08-05 05:51:00,56.3,51.8,29.90,South,185,3.0,3.0,85,0.00,,,0.00,Wunderground v.1.15,2013-08-05 12:51:00,
2013-08-05 05:52:00,56.1,52.0,29.90,South,180,3.0,-999.0,86,0.00,,,0.00,Wunderground v.1.15,2013-08-05 12:52:00,
2013-08-05 05:57:00,56.2,51.7,29.90,SW,218,2.0,3.0,85,0.00,,,0.00,Wunderground v.1.15,2013-08-05 12:57:00,
2013-08-05 06:02:00,56.1,52.0,29.90,South,180,3.0,-999.0,86,0.00,,,0.00,Wunderground v.1.15,2013-08-05 13:02:00,
2013-08-05 06:03:00,56.1,52.0,29.90,SSW,204,3.0,4.0,86,0.00,,,0.00,Wunderground v.1.15,2013-08-05 13:03:00,
2013-08-05 06:07:00,56.1,52.0,29.90,South,180,3.0,-999.0,86,0.00,,,0.00,Wunderground v.1.15,2013-08-05 13:07:00,
2013-08-05 06:09:00,55.9,51.8,29.91,South,189,3.0,5.0,86,0.00,,,0.00,Wunderground v.1.15,2013-08-05 13:09:00,
2013-08-05 06:12:00,56.1,52.0,29.90,South,180,3.0,-999.0,86,0.00,,,0.00,Wunderground v.1.15,2013-08-05 13:12:00,
2013-08-05 06:15:00,55.5,51.7,29.91,SW,222,3.0,4.0,87,0.00,,,0.00,Wunderground v.1.15,2013-08-05 13:15:00,
2013-08-05 06:17:00,55.0,51.8,29.91,South,180,3.0,-999.0,89,0.00,,,0.00,Wunderground v.1.15,2013-08-05 13:17:00,
2013-08-05 06:21:00,55.2,51.7,29.91,South,181,3.0,5.0,88,0.00,,,0.00,Wunderground v.1.15,2013-08-05 13:21:00,
2013-08-05 06:22:00,55.0,51.8,29.91,South,180,3.0,-999.0,89,0.00,,,0.00,Wunderground v.1.15,2013-08-05 13:22:00,
2013-08-05 06:26:00,55.0,51.5,29.91,South,185,3.0,5.0,88,0.00,,,0.00,Wunderground v.1.15,2013-08-05 13:26:00,
2013-08-05 06:27:00,55.0,51.8,29.91,South,180,3.0,-999.0,89,0.00,,,0.00,Wunderground v.1.15,2013-08-05 13:27:00,
2013-08-05 06:32:00,55.0,51.8,29.92,South,183,3.0,8.0,89,0.00,,,0.00,Wunderground v.1.15,2013-08-05 13:32:00,
2013-08-05 06:37:00,55.0,51.8,29.91,SSW,212,3.0,8.0,89,0.00,,,0.00,Wunderground v.1.15,2013-08-05 13:37:00,
2013-08-05 06:42:00,55.0,51.8,29.91,South,180,3.0,-999.0,89,0.00,,,0.00,Wunderground v.1.15,2013-08-05 13:42:00,
2013-08-05 06:43:00,55.0,51.8,29.92,South,185,2.0,3.0,89,0.00,,,0.00,Wunderground v.1.15,2013-08-05 13:43:00,
2013-08-05 06:47:00,55.1,52.2,29.92,South,180,3.0,-999.0,90,0.00,,,0.00,Wunderground v.1.15,2013-08-05 13:47:00,
2013-08-05 06:49:00,55.0,52.1,29.92,SSE,167,2.0,3.0,90,0.00,,,0.00,Wunderground v.1.15,2013-08-05 13:49:00,
2013-08-05 06:52:00,55.1,52.2,29.92,South,180,3.0,-999.0,90,0.00,,,0.00,Wunderground v.1.15,2013-08-05 13:52:00,
2013-08-05 06:55:00,55.0,52.1,29.92,South,174,3.0,4.0,90,0.00,,,0.00,Wunderground v.1.15,2013-08-05 13:55:00,
2013-08-05 06:57:00,55.1,52.2,29.92,South,180,3.0,-999.0,90,0.00,,,0.00,Wunderground v.1.15,2013-08-05 13:57:00,
2013-08-05 07:00:00,55.0,52.1,29.92,South,189,3.0,3.0,90,0.00,,,0.00,Wunderground v.1.15,2013-08-05 14:00:00,
2013-08-05 07:02:00,55.1,52.2,29.92,South,180,3.0,-999.0,90,0.00,,,0.00,Wunderground v.1.15,2013-08-05 14:02:00,
2013-08-05 07:05:00,55.2,52.3,29.92,SSW,197,3.0,5.0,90,0.00,,,0.00,Wunderground v.1.15,2013-08-05 14:05:00,
2013-08-05 07:07:00,55.1,52.2,29.92,South,180,3.0,-999.0,90,0.00,,,0.00,Wunderground v.1.15,2013-08-05 14:07:00,
2013-08-05 07:10:00,55.5,52.6,29.92,South,185,3.0,3.0,90,0.00,,,0.00,Wunderground v.1.15,2013-08-05 14:10:00,
2013-08-05 07:12:00,55.1,52.2,29.92,South,180,3.0,-999.0,90,0.00,,,0.00,Wunderground v.1.15,2013-08-05 14:12:00,
2013-08-05 07:16:00,55.8,52.6,29.92,SE,146,2.0,4.0,89,0.00,,,0.00,Wunderground v.1.15,2013-08-05 14:16:00,
2013-08-05 07:17:00,56.3,52.5,29.92,South,180,3.0,-999.0,87,0.00,,,0.00,Wunderground v.1.15,2013-08-05 14:17:00,
2013-08-05 07:21:00,56.0,52.8,29.92,SE,130,3.0,5.0,89,0.00,,,0.00,Wunderground v.1.15,2013-08-05 14:21:00,
2013-08-05 07:22:00,56.3,52.5,29.92,South,180,3.0,-999.0,87,0.00,,,0.00,Wunderground v.1.15,2013-08-05 14:22:00,
2013-08-05 07:27:00,56.3,52.5,29.92,South,180,3.0,-999.0,87,0.00,,,0.00,Wunderground v.1.15,2013-08-05 14:27:00,
2013-08-05 07:28:00,56.3,52.8,29.92,SSE,167,3.0,7.0,88,0.00,,,0.00,Wunderground v.1.15,2013-08-05 14:28:00,
2013-08-05 07:32:00,56.3,52.5,29.92,South,180,3.0,-999.0,87,0.00,,,0.00,Wunderground v.1.15,2013-08-05 14:32:00,
2013-08-05 07:33:00,56.3,52.5,29.92,South,191,3.0,10.0,87,0.00,,,0.00,Wunderground v.1.15,2013-08-05 14:33:00,
2013-08-05 07:37:00,56.3,52.5,29.92,South,180,3.0,-999.0,87,0.00,,,0.00,Wunderground v.1.15,2013-08-05 14:37:00,
2013-08-05 07:39:00,56.4,52.9,29.92,SSW,208,2.0,10.0,88,0.00,,,0.00,Wunderground v.1.15,2013-08-05 14:39:00,
2013-08-05 07:42:00,56.3,52.5,29.92,South,180,3.0,-999.0,87,0.00,,,0.00,Wunderground v.1.15,2013-08-05 14:42:00,
2013-08-05 07:44:00,56.6,52.8,29.92,SSE,168,2.0,2.0,87,0.00,,,0.00,Wunderground v.1.15,2013-08-05 14:44:00,
2013-08-05 07:47:00,58.1,53.3,29.93,SSW,203,2.0,-999.0,84,0.00,,,0.00,Wunderground v.1.15,2013-08-05 14:47:00,
2013-08-05 07:49:00,57.0,53.2,29.92,South,187,2.0,2.0,87,0.00,,,0.00,Wunderground v.1.15,2013-08-05 14:49:00,
2013-08-05 07:52:00,58.1,53.3,29.93,SSW,203,2.0,-999.0,84,0.00,,,0.00,Wunderground v.1.15,2013-08-05 14:52:00,
2013-08-05 07:55:00,57.4,53.2,29.93,SSW,197,2.0,6.0,86,0.00,,,0.00,Wunderground v.1.15,2013-08-05 14:55:00,
2013-08-05 07:57:00,58.1,53.3,29.93,SSW,203,2.0,-999.0,84,0.00,,,0.00,Wunderground v.1.15,2013-08-05 14:57:00,
2013-08-05 08:01:00,58.0,53.5,29.93,SW,216,2.0,3.0,85,0.00,,,0.00,Wunderground v.1.15,2013-08-05 15:01:00,
2013-08-05 08:02:00,58.1,53.3,29.93,SSW,203,2.0,-999.0,84,0.00,,,0.00,Wunderground v.1.15,2013-08-05 15:02:00,
2013-08-05 08:07:00,58.4,53.6,29.93,South,189,3.0,5.0,84,0.00,,,0.00,Wunderground v.1.15,2013-08-05 15:07:00,
2013-08-05 08:12:00,58.9,53.7,29.93,SSE,149,2.0,3.0,83,0.00,,,0.00,Wunderground v.1.15,2013-08-05 15:12:00,
2013-08-05 08:17:00,59.5,53.7,29.93,South,178,2.0,3.0,81,0.00,,,0.00,Wunderground v.1.15,2013-08-05 15:17:00,
2013-08-05 08:22:00,60.2,54.0,29.93,SSE,147,3.0,4.0,80,0.00,,,0.00,Wunderground v.1.15,2013-08-05 15:22:00,
2013-08-05 08:27:00,60.9,54.0,29.93,SW,215,3.0,7.0,78,0.00,,,0.00,Wunderground v.1.15,2013-08-05 15:27:00,
2013-08-05 08:32:00,61.6,54.3,29.93,South,180,3.0,-999.0,77,0.00,,,0.00,Wunderground v.1.15,2013-08-05 15:32:00,
2013-08-05 08:33:00,61.5,54.2,29.93,SE,141,4.0,8.0,77,0.00,,,0.00,Wunderground v.1.15,2013-08-05 15:33:00,
2013-08-05 08:37:00,61.6,54.3,29.93,South,180,3.0,-999.0,77,0.00,,,0.00,Wunderground v.1.15,2013-08-05 15:37:00,
2013-08-05 08:38:00,62.3,54.3,29.93,SSE,167,3.0,8.0,75,0.00,,,0.00,Wunderground v.1.15,2013-08-05 15:38:00,
2013-08-05 08:42:00,61.6,54.3,29.93,South,180,3.0,-999.0,77,0.00,,,0.00,Wunderground v.1.15,2013-08-05 15:42:00,
2013-08-05 08:45:00,62.6,54.6,29.93,SSE,154,3.0,8.0,75,0.00,,,0.00,Wunderground v.1.15,2013-08-05 15:45:00,
2013-08-05 08:47:00,64.4,54.8,29.93,SSW,203,2.0,-999.0,71,0.00,,,0.00,Wunderground v.1.15,2013-08-05 15:47:00,
2013-08-05 08:50:00,63.1,54.3,29.93,SW,234,3.0,3.0,73,0.00,,,0.00,Wunderground v.1.15,2013-08-05 15:50:00,
2013-08-05 08:52:00,64.4,54.8,29.93,SSW,203,2.0,-999.0,71,0.00,,,0.00,Wunderground v.1.15,2013-08-05 15:52:00,
2013-08-05 08:54:00,63.6,54.8,29.93,SSE,157,3.0,3.0,73,0.00,,,0.00,Wunderground v.1.15,2013-08-05 15:54:00,
2013-08-05 08:57:00,64.4,54.8,29.93,SSW,203,2.0,-999.0,71,0.00,,,0.00,Wunderground v.1.15,2013-08-05 15:57:00,
2013-08-05 09:01:00,64.2,54.6,29.93,South,190,2.0,2.0,71,0.00,,,0.00,Wunderground v.1.15,2013-08-05 16:01:00,
2013-08-05 09:02:00,64.4,54.8,29.93,SSW,203,2.0,-999.0,71,0.00,,,0.00,Wunderground v.1.15,2013-08-05 16:02:00,
2013-08-05 09:07:00,64.9,54.5,29.93,SW,233,2.0,5.0,69,0.00,,,0.00,Wunderground v.1.15,2013-08-05 16:07:00,
2013-08-05 09:11:00,65.1,54.7,29.93,SSW,197,2.0,4.0,69,0.00,,,0.00,Wunderground v.1.15,2013-08-05 16:11:00,
2013-08-05 09:12:00,64.4,54.8,29.93,SSW,203,2.0,-999.0,71,0.00,,,0.00,Wunderground v.1.15,2013-08-05 16:12:00,
2013-08-05 09:17:00,65.6,54.3,29.92,SSW,200,3.0,4.0,67,0.00,,,0.00,Wunderground v.1.15,2013-08-05 16:17:00,
2013-08-05 09:22:00,66.0,54.7,29.92,SSW,210,2.0,4.0,67,0.00,,,0.00,Wunderground v.1.15,2013-08-05 16:22:00,
2013-08-05 09:27:00,66.4,55.1,29.92,South,169,3.0,6.0,67,0.00,,,0.00,Wunderground v.1.15,2013-08-05 16:27:00,
2013-08-05 09:32:00,67.2,54.6,29.92,SSW,203,3.0,-999.0,64,0.00,,,0.00,Wunderground v.1.15,2013-08-05 16:32:00,
2013-08-05 09:33:00,67.2,54.6,29.92,WSW,256,4.0,8.0,64,0.00,,,0.00,Wunderground v.1.15,2013-08-05 16:33:00,
2013-08-05 09:37:00,67.2,54.6,29.92,SSW,203,3.0,-999.0,64,0.00,,,0.00,Wunderground v.1.15,2013-08-05 16:37:00,
2013-08-05 09:38:00,67.7,55.1,29.92,WSW,237,3.0,8.0,64,0.00,,,0.00,Wunderground v.1.15,2013-08-05 16:38:00,
2013-08-05 09:42:00,67.2,54.6,29.92,SSW,203,3.0,-999.0,64,0.00,,,0.00,Wunderground v.1.15,2013-08-05 16:42:00,
2013-08-05 09:43:00,68.2,55.1,29.92,West,266,3.0,7.0,63,0.00,,,0.00,Wunderground v.1.15,2013-08-05 16:43:00,
2013-08-05 09:47:00,69.7,54.7,29.92,SSW,203,3.0,-999.0,59,0.00,,,0.00,Wunderground v.1.15,2013-08-05 16:47:00,
2013-08-05 09:48:00,68.5,55.0,29.92,WSW,248,3.0,7.0,62,0.00,,,0.00,Wunderground v.1.15,2013-08-05 16:48:00,
2013-08-05 09:52:00,69.7,54.7,29.92,SSW,203,3.0,-999.0,59,0.00,,,0.00,Wunderground v.1.15,2013-08-05 16:52:00,
2013-08-05 09:53:00,68.9,55.3,29.92,SSW,199,2.0,4.0,62,0.00,,,0.00,Wunderground v.1.15,2013-08-05 16:53:00,
2013-08-05 09:57:00,69.7,54.7,29.92,SSW,203,3.0,-999.0,59,0.00,,,0.00,Wunderground v.1.15,2013-08-05 16:57:00,
2013-08-05 09:59:00,69.5,55.0,29.93,South,170,2.0,8.0,60,0.00,,,0.00,Wunderground v.1.15,2013-08-05 16:59:00,
2013-08-05 10:02:00,69.7,54.7,29.92,SSW,203,3.0,-999.0,59,0.00,,,0.00,Wunderground v.1.15,2013-08-05 17:02:00,
2013-08-05 10:05:00,69.7,54.7,29.93,WSW,238,2.0,7.0,59,0.00,,,0.00,Wunderground v.1.15,2013-08-05 17:05:00,
2013-08-05 10:07:00,69.7,54.7,29.92,SSW,203,3.0,-999.0,59,0.00,,,0.00,Wunderground v.1.15,2013-08-05 17:07:00,
2013-08-05 10:11:00,70.4,54.9,29.93,NW,316,3.0,3.0,58,0.00,,,0.00,Wunderground v.1.15,2013-08-05 17:11:00,
2013-08-05 10:12:00,69.7,54.7,29.92,SSW,203,3.0,-999.0,59,0.00,,,0.00,Wunderground v.1.15,2013-08-05 17:12:00,
2013-08-05 10:17:00,71.0,55.5,29.93,WSW,243,3.0,4.0,58,0.00,,,0.00,Wunderground v.1.15,2013-08-05 17:17:00,
2013-08-05 10:22:00,71.6,55.1,29.92,SSW,206,1.0,3.0,56,0.00,,,0.00,Wunderground v.1.15,2013-08-05 17:22:00,
2013-08-05 10:27:00,71.7,55.2,29.92,SW,224,2.0,3.0,56,0.00,,,0.00,Wunderground v.1.15,2013-08-05 17:27:00,
2013-08-05 10:32:00,72.4,54.8,29.92,WSW,248,2.0,-999.0,54,0.00,,,0.00,Wunderground v.1.15,2013-08-05 17:32:00,
2013-08-05 10:33:00,72.4,54.8,29.92,West,262,2.0,9.0,54,0.00,,,0.00,Wunderground v.1.15,2013-08-05 17:33:00,
2013-08-05 10:37:00,72.4,54.8,29.92,WSW,248,2.0,-999.0,54,0.00,,,0.00,Wunderground v.1.15,2013-08-05 17:37:00,
2013-08-05 10:38:00,72.7,54.6,29.93,WSW,244,2.0,9.0,53,0.00,,,0.00,Wunderground v.1.15,2013-08-05 17:38:00,
2013-08-05 10:42:00,72.4,54.8,29.92,WSW,248,2.0,-999.0,54,0.00,,,0.00,Wunderground v.1.15,2013-08-05 17:42:00,
2013-08-05 10:44:00,73.0,54.3,29.93,West,262,3.0,6.0,52,0.00,,,0.00,Wunderground v.1.15,2013-08-05 17:44:00,
2013-08-05 10:47:00,75.4,54.3,29.92,SSE,158,2.0,-999.0,48,0.00,,,0.00,Wunderground v.1.15,2013-08-05 17:47:00,
2013-08-05 10:50:00,73.5,55.3,29.93,SSE,165,2.0,3.0,53,0.00,,,0.00,Wunderground v.1.15,2013-08-05 17:50:00,
2013-08-05 10:52:00,75.4,54.3,29.92,SSE,158,2.0,-999.0,48,0.00,,,0.00,Wunderground v.1.15,2013-08-05 17:52:00,
2013-08-05 10:56:00,74.4,54.5,29.93,SSW,199,2.0,3.0,50,0.00,,,0.00,Wunderground v.1.15,2013-08-05 17:56:00,
2013-08-05 10:57:00,75.4,54.3,29.92,SSE,158,2.0,-999.0,48,0.00,,,0.00,Wunderground v.1.15,2013-08-05 17:57:00,
2013-08-05 11:01:00,75.1,54.6,29.92,South,177,2.0,3.0,49,0.00,,,0.00,Wunderground v.1.15,2013-08-05 18:01:00,
2013-08-05 11:02:00,75.4,54.3,29.92,SSE,158,2.0,-999.0,48,0.00,,,0.00,Wunderground v.1.15,2013-08-05 18:02:00,
2013-08-05 11:07:00,75.6,55.1,29.92,SW,229,2.0,3.0,49,0.00,,,0.00,Wunderground v.1.15,2013-08-05 18:07:00,
2013-08-05 11:12:00,75.4,54.3,29.92,SSE,158,2.0,-999.0,48,0.00,,,0.00,Wunderground v.1.15,2013-08-05 18:12:00,
2013-08-05 11:13:00,75.8,54.7,29.92,South,172,2.0,4.0,48,0.00,,,0.00,Wunderground v.1.15,2013-08-05 18:13:00,
2013-08-05 11:17:00,77.4,54.4,29.92,South,180,2.0,-999.0,45,0.00,,,0.00,Wunderground v.1.15,2013-08-05 18:17:00,
2013-08-05 11:19:00,76.3,54.0,29.92,WSW,254,3.0,5.0,46,0.00,,,0.00,Wunderground v.1.15,2013-08-05 18:19:00,
2013-08-05 11:22:00,77.4,54.4,29.92,South,180,2.0,-999.0,45,0.00,,,0.00,Wunderground v.1.15,2013-08-05 18:22:00,
2013-08-05 11:24:00,76.7,55.5,29.92,SSW,199,2.0,3.0,48,0.00,,,0.00,Wunderground v.1.15,2013-08-05 18:24:00,
2013-08-05 11:27:00,77.4,54.4,29.92,South,180,2.0,-999.0,45,0.00,,,0.00,Wunderground v.1.15,2013-08-05 18:27:00,
2013-08-05 11:29:00,77.1,54.1,29.92,SSW,210,2.0,5.0,45,0.00,,,0.00,Wunderground v.1.15,2013-08-05 18:29:00,
2013-08-05 11:32:00,77.4,54.4,29.92,South,180,2.0,-999.0,45,0.00,,,0.00,Wunderground v.1.15,2013-08-05 18:32:00,
2013-08-05 11:34:00,77.5,55.1,29.92,SW,221,1.0,8.0,46,0.00,,,0.00,Wunderground v.1.15,2013-08-05 18:34:00,
2013-08-05 11:37:00,77.4,54.4,29.92,South,180,2.0,-999.0,45,0.00,,,0.00,Wunderground v.1.15,2013-08-05 18:37:00,
2013-08-05 11:40:00,78.0,53.7,29.92,SW,216,2.0,3.0,43,0.00,,,0.00,Wunderground v.1.15,2013-08-05 18:40:00,
2013-08-05 11:42:00,77.4,54.4,29.92,South,180,2.0,-999.0,45,0.00,,,0.00,Wunderground v.1.15,2013-08-05 18:42:00,
2013-08-05 11:46:00,78.2,53.9,29.92,West,274,2.0,4.0,43,0.00,,,0.00,Wunderground v.1.15,2013-08-05 18:46:00,
2013-08-05 11:47:00,79.7,53.2,29.91,West,270,2.0,-999.0,40,0.00,,,0.00,Wunderground v.1.15,2013-08-05 18:47:00,
2013-08-05 11:52:00,78.9,53.2,29.92,SSW,211,2.0,2.0,41,0.00,,,0.00,Wunderground v.1.15,2013-08-05 18:52:00,
2013-08-05 11:57:00,79.2,53.5,29.91,West,276,2.0,2.0,41,0.00,,,0.00,Wunderground v.1.15,2013-08-05 18:57:00,
2013-08-05 12:02:00,79.7,53.2,29.91,West,270,2.0,-999.0,40,0.00,,,0.00,Wunderground v.1.15,2013-08-05 19:02:00,
2013-08-05 12:03:00,79.7,53.2,29.91,SSW,201,3.0,5.0,40,0.00,,,0.00,Wunderground v.1.15,2013-08-05 19:03:00,
2013-08-05 12:07:00,79.7,53.2,29.91,West,270,2.0,-999.0,40,0.00,,,0.00,Wunderground v.1.15,2013-08-05 19:07:00,
2013-08-05 12:09:00,80.1,53.6,29.91,West,268,3.0,6.0,40,0.00,,,0.00,Wunderground v.1.15,2013-08-05 19:09:00,
2013-08-05 12:12:00,79.7,53.2,29.91,West,270,2.0,-999.0,40,0.00,,,0.00,Wunderground v.1.15,2013-08-05 19:12:00,
2013-08-05 12:14:00,80.5,54.0,29.91,West,270,2.0,3.0,40,0.00,,,0.00,Wunderground v.1.15,2013-08-05 19:14:00,
2013-08-05 12:17:00,81.8,52.2,29.90,West,270,2.0,-999.0,36,0.00,,,0.00,Wunderground v.1.15,2013-08-05 19:17:00,
2013-08-05 12:19:00,81.1,52.4,29.91,SSW,206,2.0,4.0,37,0.00,,,0.00,Wunderground v.1.15,2013-08-05 19:19:00,
2013-08-05 12:22:00,81.8,52.2,29.90,West,270,2.0,-999.0,36,0.00,,,0.00,Wunderground v.1.15,2013-08-05 19:22:00,
2013-08-05 12:25:00,81.6,52.1,29.91,West,264,2.0,2.0,36,0.00,,,0.00,Wunderground v.1.15,2013-08-05 19:25:00,
2013-08-05 12:27:00,81.8,52.2,29.90,West,270,2.0,-999.0,36,0.00,,,0.00,Wunderground v.1.15,2013-08-05 19:27:00,
2013-08-05 12:31:00,81.8,51.5,29.90,WSW,247,2.0,5.0,35,0.00,,,0.00,Wunderground v.1.15,2013-08-05 19:31:00,
2013-08-05 12:32:00,81.8,52.2,29.90,West,270,2.0,-999.0,36,0.00,,,0.00,Wunderground v.1.15,2013-08-05 19:32:00,
2013-08-05 12:36:00,82.1,52.5,29.90,SSW,197,2.0,7.0,36,0.00,,,0.00,Wunderground v.1.15,2013-08-05 19:36:00,
2013-08-05 12:37:00,81.8,52.2,29.90,West,270,2.0,-999.0,36,0.00,,,0.00,Wunderground v.1.15,2013-08-05 19:37:00,
2013-08-05 12:42:00,82.6,52.9,29.90,West,266,2.0,5.0,36,0.00,,,0.00,Wunderground v.1.15,2013-08-05 19:42:00,
2013-08-05 12:47:00,82.5,52.9,29.90,NNW,330,2.0,5.0,36,0.00,,,0.00,Wunderground v.1.15,2013-08-05 19:47:00,
2013-08-05 12:52:00,83.7,53.9,29.90,West,270,2.0,-999.0,36,0.00,,,0.00,Wunderground v.1.15,2013-08-05 19:52:00,
2013-08-05 12:53:00,82.8,52.3,29.90,West,272,2.0,3.0,35,0.00,,,0.00,Wunderground v.1.15,2013-08-05 19:53:00,
2013-08-05 12:57:00,83.7,53.9,29.90,West,270,2.0,-999.0,36,0.00,,,0.00,Wunderground v.1.15,2013-08-05 19:57:00,
2013-08-05 12:59:00,82.9,54.0,29.90,WSW,250,2.0,6.0,37,0.00,,,0.00,Wunderground v.1.15,2013-08-05 19:59:00,
2013-08-05 13:02:00,83.7,53.9,29.90,West,270,2.0,-999.0,36,0.00,,,0.00,Wunderground v.1.15,2013-08-05 20:02:00,
2013-08-05 13:05:00,84.0,52.6,29.90,West,281,2.0,6.0,34,0.00,,,0.00,Wunderground v.1.15,2013-08-05 20:05:00,
2013-08-05 13:07:00,83.7,53.9,29.90,West,270,2.0,-999.0,36,0.00,,,0.00,Wunderground v.1.15,2013-08-05 20:07:00,
2013-08-05 13:10:00,84.2,54.4,29.89,SW,235,1.0,5.0,36,0.00,,,0.00,Wunderground v.1.15,2013-08-05 20:10:00,
2013-08-05 13:12:00,83.7,53.9,29.90,West,270,2.0,-999.0,36,0.00,,,0.00,Wunderground v.1.15,2013-08-05 20:12:00,
2013-08-05 13:16:00,85.0,53.5,29.89,SW,225,1.0,5.0,34,0.00,,,0.00,Wunderground v.1.15,2013-08-05 20:16:00,
2013-08-05 13:17:00,86.2,51.1,29.89,West,270,2.0,-999.0,30,0.00,,,0.00,Wunderground v.1.15,2013-08-05 20:17:00,
2013-08-05 13:22:00,85.6,54.8,29.89,WSW,243,1.0,3.0,35,0.00,,,0.00,Wunderground v.1.15,2013-08-05 20:22:00,
2013-08-05 13:27:00,86.1,52.8,29.89,West,260,2.0,6.0,32,0.00,,,0.00,Wunderground v.1.15,2013-08-05 20:27:00,
2013-08-05 13:32:00,86.2,51.1,29.89,West,270,2.0,-999.0,30,0.00,,,0.00,Wunderground v.1.15,2013-08-05 20:32:00,
2013-08-05 13:33:00,86.2,52.9,29.89,West,280,2.0,8.0,32,0.00,,,0.00,Wunderground v.1.15,2013-08-05 20:33:00,
2013-08-05 13:37:00,86.2,51.1,29.89,West,270,2.0,-999.0,30,0.00,,,0.00,Wunderground v.1.15,2013-08-05 20:37:00,
2013-08-05 13:38:00,86.6,51.5,29.89,West,260,2.0,8.0,30,0.00,,,0.00,Wunderground v.1.15,2013-08-05 20:38:00,
2013-08-05 13:42:00,86.2,51.1,29.89,West,270,2.0,-999.0,30,0.00,,,0.00,Wunderground v.1.15,2013-08-05 20:42:00,
2013-08-05 13:43:00,87.3,51.2,29.89,NNW,328,1.0,5.0,29,0.00,,,0.00,Wunderground v.1.15,2013-08-05 20:43:00,
2013-08-05 13:47:00,88.1,47.9,29.88,West,270,2.0,-999.0,25,0.00,,,0.00,Wunderground v.1.15,2013-08-05 20:47:00,
2013-08-05 13:48:00,87.0,51.8,29.89,WSW,257,2.0,5.0,30,0.00,,,0.00,Wunderground v.1.15,2013-08-05 20:48:00,
2013-08-05 13:52:00,88.1,47.9,29.88,West,270,2.0,-999.0,25,0.00,,,0.00,Wunderground v.1.15,2013-08-05 20:52:00,
2013-08-05 13:53:00,87.3,49.2,29.89,NW,326,2.0,3.0,27,0.00,,,0.00,Wunderground v.1.15,2013-08-05 20:53:00,
2013-08-05 13:57:00,88.1,47.9,29.88,West,270,2.0,-999.0,25,0.00,,,0.00,Wunderground v.1.15,2013-08-05 20:57:00,
2013-08-05 14:01:00,88.2,49.0,29.88,North,359,1.0,4.0,26,0.00,,,0.00,Wunderground v.1.15,2013-08-05 21:01:00,
2013-08-05 14:02:00,88.1,47.9,29.88,West,270,2.0,-999.0,25,0.00,,,0.00,Wunderground v.1.15,2013-08-05 21:02:00,
2013-08-05 14:07:00,87.5,47.3,29.88,NNW,347,2.0,4.0,25,0.00,,,0.00,Wunderground v.1.15,2013-08-05 21:07:00,
2013-08-05 14:12:00,87.7,49.6,29.88,West,261,2.0,2.0,27,0.00,,,0.00,Wunderground v.1.15,2013-08-05 21:12:00,
2013-08-05 14:17:00,90.7,51.1,29.87,WSW,248,1.0,-999.0,26,0.00,,,0.00,Wunderground v.1.15,2013-08-05 21:17:00,
2013-08-05 14:18:00,88.7,50.4,29.87,South,187,1.0,5.0,27,0.00,,,0.00,Wunderground v.1.15,2013-08-05 21:18:00,
2013-08-05 14:22:00,90.7,51.1,29.87,WSW,248,1.0,-999.0,26,0.00,,,0.00,Wunderground v.1.15,2013-08-05 21:22:00,
2013-08-05 14:24:00,89.6,50.2,29.87,West,269,1.0,5.0,26,0.00,,,0.00,Wunderground v.1.15,2013-08-05 21:24:00,
2013-08-05 14:27:00,90.7,51.1,29.87,WSW,248,1.0,-999.0,26,0.00,,,0.00,Wunderground v.1.15,2013-08-05 21:27:00,
2013-08-05 14:29:00,90.1,51.6,29.87,WSW,243,2.0,5.0,27,0.00,,,0.00,Wunderground v.1.15,2013-08-05 21:29:00,
2013-08-05 14:32:00,90.7,51.1,29.87,WSW,248,1.0,-999.0,26,0.00,,,0.00,Wunderground v.1.15,2013-08-05 21:32:00,
2013-08-05 14:35:00,90.8,51.2,29.87,West,276,2.0,8.0,26,0.00,,,0.00,Wunderground v.1.15,2013-08-05 21:35:00,
2013-08-05 14:37:00,90.7,51.1,29.87,WSW,248,1.0,-999.0,26,0.00,,,0.00,Wunderground v.1.15,2013-08-05 21:37:00,
2013-08-05 14:40:00,90.8,51.2,29.86,WSW,237,2.0,2.0,26,0.00,,,0.00,Wunderground v.1.15,2013-08-05 21:40:00,
2013-08-05 14:42:00,90.7,51.1,29.87,WSW,248,1.0,-999.0,26,0.00,,,0.00,Wunderground v.1.15,2013-08-05 21:42:00,
2013-08-05 14:45:00,90.9,53.3,29.86,West,268,2.0,3.0,28,0.00,,,0.00,Wunderground v.1.15,2013-08-05 21:45:00,
2013-08-05 14:47:00,91.9,52.1,29.85,West,270,2.0,-999.0,26,0.00,,,0.00,Wunderground v.1.15,2013-08-05 21:47:00,
2013-08-05 14:51:00,91.3,50.5,29.86,West,270,1.0,10.0,25,0.00,,,0.00,Wunderground v.1.15,2013-08-05 21:51:00,
2013-08-05 14:52:00,91.9,52.1,29.85,West,270,2.0,-999.0,26,0.00,,,0.00,Wunderground v.1.15,2013-08-05 21:52:00,
2013-08-05 14:57:00,91.0,51.4,29.86,West,276,3.0,10.0,26,0.00,,,0.00,Wunderground v.1.15,2013-08-05 21:57:00,
2013-08-05 15:02:00,91.7,51.9,29.85,West,262,2.0,3.0,26,0.00,,,0.00,Wunderground v.1.15,2013-08-05 22:02:00,
2013-08-05 15:07:00,92.5,50.5,29.85,WNW,291,1.0,4.0,24,0.00,,,0.00,Wunderground v.1.15,2013-08-05 22:07:00,
2013-08-05 15:12:00,92.6,49.4,29.85,NNW,338,2.0,2.0,23,0.00,,,0.00,Wunderground v.1.15,2013-08-05 22:12:00,
2013-08-05 15:17:00,90.8,50.1,29.84,West,270,2.0,-999.0,25,0.00,,,0.00,Wunderground v.1.15,2013-08-05 22:17:00,
2013-08-05 15:18:00,92.4,48.0,29.85,NNW,332,2.0,5.0,22,0.00,,,0.00,Wunderground v.1.15,2013-08-05 22:18:00,
2013-08-05 15:22:00,90.8,50.1,29.84,West,270,2.0,-999.0,25,0.00,,,0.00,Wunderground v.1.15,2013-08-05 22:22:00,
2013-08-05 15:23:00,92.3,48.0,29.85,NW,326,3.0,4.0,22,0.00,,,0.00,Wunderground v.1.15,2013-08-05 22:23:00,
2013-08-05 15:27:00,90.8,50.1,29.84,West,270,2.0,-999.0,25,0.00,,,0.00,Wunderground v.1.15,2013-08-05 22:27:00,
2013-08-05 15:29:00,91.1,48.1,29.85,NW,316,2.0,4.0,23,0.00,,,0.00,Wunderground v.1.15,2013-08-05 22:29:00,
2013-08-05 15:32:00,90.8,50.1,29.84,West,270,2.0,-999.0,25,0.00,,,0.00,Wunderground v.1.15,2013-08-05 22:32:00,
2013-08-05 15:35:00,91.1,50.4,29.84,West,262,1.0,7.0,25,0.00,,,0.00,Wunderground v.1.15,2013-08-05 22:35:00,
2013-08-05 15:37:00,90.8,50.1,29.84,West,270,2.0,-999.0,25,0.00,,,0.00,Wunderground v.1.15,2013-08-05 22:37:00,
2013-08-05 15:40:00,91.8,49.9,29.84,WNW,289,2.0,2.0,24,0.00,,,0.00,Wunderground v.1.15,2013-08-05 22:40:00,
2013-08-05 15:42:00,90.8,50.1,29.84,West,270,2.0,-999.0,25,0.00,,,0.00,Wunderground v.1.15,2013-08-05 22:42:00,
2013-08-05 15:46:00,92.6,50.5,29.84,SW,221,3.0,5.0,24,0.00,,,0.00,Wunderground v.1.15,2013-08-05 22:46:00,
2013-08-05 15:47:00,94.0,49.4,29.83,SSW,203,3.0,-999.0,22,0.00,,,0.00,Wunderground v.1.15,2013-08-05 22:47:00,
2013-08-05 15:51:00,93.2,48.7,29.84,WSW,254,3.0,3.0,22,0.00,,,0.00,Wunderground v.1.15,2013-08-05 22:51:00,
2013-08-05 15:52:00,94.0,49.4,29.83,SSW,203,3.0,-999.0,22,0.00,,,0.00,Wunderground v.1.15,2013-08-05 22:52:00,
2013-08-05 15:57:00,93.5,48.9,29.84,SSE,166,3.0,8.0,22,0.00,,,0.00,Wunderground v.1.15,2013-08-05 22:57:00,
2013-08-05 16:02:00,94.0,49.4,29.83,SSW,203,3.0,-999.0,22,0.00,,,0.00,Wunderground v.1.15,2013-08-05 23:02:00,
2013-08-05 16:03:00,93.9,49.3,29.83,SW,222,3.0,3.0,22,0.00,,,0.00,Wunderground v.1.15,2013-08-05 23:03:00,
2013-08-05 16:07:00,94.0,49.4,29.83,SSW,203,3.0,-999.0,22,0.00,,,0.00,Wunderground v.1.15,2013-08-05 23:07:00,
2013-08-05 16:08:00,93.5,45.1,29.83,WSW,238,2.0,3.0,19,0.00,,,0.00,Wunderground v.1.15,2013-08-05 23:08:00,
2013-08-05 16:12:00,94.0,49.4,29.83,SSW,203,3.0,-999.0,22,0.00,,,0.00,Wunderground v.1.15,2013-08-05 23:12:00,
2013-08-05 16:13:00,93.5,47.7,29.83,SW,219,1.0,2.0,21,0.00,,,0.00,Wunderground v.1.15,2013-08-05 23:13:00,
2013-08-05 16:17:00,93.2,44.8,29.83,WSW,248,2.0,-999.0,19,0.00,,,0.00,Wunderground v.1.15,2013-08-05 23:17:00,
2013-08-05 16:19:00,93.4,47.6,29.83,West,262,2.0,4.0,21,0.00,,,0.00,Wunderground v.1.15,2013-08-05 23:19:00,
2013-08-05 16:22:00,93.2,44.8,29.83,WSW,248,2.0,-999.0,19,0.00,,,0.00,Wunderground v.1.15,2013-08-05 23:22:00,
2013-08-05 16:24:00,93.0,46.0,29.83,West,263,1.0,4.0,20,0.00,,,0.00,Wunderground v.1.15,2013-08-05 23:24:00,
2013-08-05 16:27:00,93.2,44.8,29.83,WSW,248,2.0,-999.0,19,0.00,,,0.00,Wunderground v.1.15,2013-08-05 23:27:00,
2013-08-05 16:29:00,93.1,46.1,29.83,West,261,2.0,4.0,20,0.00,,,0.00,Wunderground v.1.15,2013-08-05 23:29:00,
2013-08-05 16:32:00,93.2,44.8,29.83,WSW,248,2.0,-999.0,19,0.00,,,0.00,Wunderground v.1.15,2013-08-05 23:32:00,
2013-08-05 16:35:00,93.3,44.9,29.82,SW,216,2.0,8.0,19,0.00,,,0.00,Wunderground v.1.15,2013-08-05 23:35:00,
2013-08-05 16:37:00,93.2,44.8,29.83,WSW,248,2.0,-999.0,19,0.00,,,0.00,Wunderground v.1.15,2013-08-05 23:37:00,
2013-08-05 16:40:00,93.3,44.9,29.82,South,185,1.0,2.0,19,0.00,,,0.00,Wunderground v.1.15,2013-08-05 23:40:00,
2013-08-05 16:42:00,93.2,44.8,29.83,WSW,248,2.0,-999.0,19,0.00,,,0.00,Wunderground v.1.15,2013-08-05 23:42:00,
2013-08-05 16:46:00,93.6,46.5,29.82,WNW,297,1.0,5.0,20,0.00,,,0.00,Wunderground v.1.15,2013-08-05 23:46:00,
2013-08-05 16:47:00,93.1,44.7,29.82,West,270,2.0,-999.0,19,0.00,,,0.00,Wunderground v.1.15,2013-08-05 23:47:00,
2013-08-05 16:51:00,93.7,45.2,29.82,WSW,252,2.0,3.0,19,0.00,,,0.00,Wunderground v.1.15,2013-08-05 23:51:00,
2013-08-05 16:52:00,93.1,44.7,29.82,West,270,2.0,-999.0,19,0.00,,,0.00,Wunderground v.1.15,2013-08-05 23:52:00,
2013-08-05 16:56:00,93.2,44.8,29.82,SW,218,3.0,3.0,19,0.00,,,0.00,Wunderground v.1.15,2013-08-05 23:56:00,
2013-08-05 16:57:00,93.1,44.7,29.82,West,270,2.0,-999.0,19,0.00,,,0.00,Wunderground v.1.15,2013-08-05 23:57:00,
2013-08-05 17:02:00,93.0,46.0,29.82,WSW,248,2.0,5.0,20,0.00,,,0.00,Wunderground v.1.15,2013-08-06 00:02:00,
2013-08-05 17:07:00,92.9,44.6,29.82,West,262,1.0,5.0,19,0.00,,,0.00,Wunderground v.1.15,2013-08-06 00:07:00,
2013-08-05 17:12:00,93.1,44.7,29.82,West,270,2.0,-999.0,19,0.00,,,0.00,Wunderground v.1.15,2013-08-06 00:12:00,
2013-08-05 17:13:00,92.8,44.5,29.82,WSW,247,2.0,3.0,19,0.00,,,0.00,Wunderground v.1.15,2013-08-06 00:13:00,
2013-08-05 17:17:00,92.8,43.1,29.81,West,270,2.0,-999.0,18,0.00,,,0.00,Wunderground v.1.15,2013-08-06 00:17:00,
2013-08-05 17:18:00,93.0,44.6,29.82,NW,314,2.0,4.0,19,0.00,,,0.00,Wunderground v.1.15,2013-08-06 00:18:00,
2013-08-05 17:22:00,92.8,43.1,29.81,West,270,2.0,-999.0,18,0.00,,,0.00,Wunderground v.1.15,2013-08-06 00:22:00,
2013-08-05 17:23:00,92.7,43.0,29.82,West,271,1.0,4.0,18,0.00,,,0.00,Wunderground v.1.15,2013-08-06 00:23:00,
2013-08-05 17:27:00,92.8,43.1,29.81,West,270,2.0,-999.0,18,0.00,,,0.00,Wunderground v.1.15,2013-08-06 00:27:00,
2013-08-05 17:28:00,92.7,43.0,29.81,WNW,283,2.0,4.0,18,0.00,,,0.00,Wunderground v.1.15,2013-08-06 00:28:00,
2013-08-05 17:32:00,92.8,43.1,29.81,West,270,2.0,-999.0,18,0.00,,,0.00,Wunderground v.1.15,2013-08-06 00:32:00,
2013-08-05 17:34:00,92.8,44.5,29.81,WSW,248,2.0,8.0,19,0.00,,,0.00,Wunderground v.1.15,2013-08-06 00:34:00,
2013-08-05 17:37:00,92.8,43.1,29.81,West,270,2.0,-999.0,18,0.00,,,0.00,Wunderground v.1.15,2013-08-06 00:37:00,
2013-08-05 17:41:00,92.6,42.9,29.81,West,270,2.0,5.0,18,0.00,,,0.00,Wunderground v.1.15,2013-08-06 00:41:00,
2013-08-05 17:42:00,92.8,43.1,29.81,West,270,2.0,-999.0,18,0.00,,,0.00,Wunderground v.1.15,2013-08-06 00:42:00,
2013-08-05 17:46:00,92.1,42.5,29.81,SW,218,2.0,5.0,18,0.00,,,0.00,Wunderground v.1.15,2013-08-06 00:46:00,
2013-08-05 17:47:00,91.0,43.0,29.81,West,270,2.0,-999.0,19,0.00,,,0.00,Wunderground v.1.15,2013-08-06 00:47:00,
2013-08-05 17:52:00,91.3,41.9,29.81,West,274,2.0,2.0,18,0.00,,,0.00,Wunderground v.1.15,2013-08-06 00:52:00,
2013-08-05 17:57:00,91.1,40.2,29.81,WNW,303,2.0,4.0,17,0.00,,,0.00,Wunderground v.1.15,2013-08-06 00:57:00,
2013-08-05 18:02:00,91.0,41.6,29.81,West,260,2.0,2.0,18,0.00,,,0.00,Wunderground v.1.15,2013-08-06 01:02:00,
2013-08-05 18:07:00,90.8,44.2,29.81,West,259,2.0,6.0,20,0.00,,,0.00,Wunderground v.1.15,2013-08-06 01:07:00,
2013-08-05 18:12:00,91.0,43.0,29.81,West,270,2.0,-999.0,19,0.00,,,0.00,Wunderground v.1.15,2013-08-06 01:12:00,
2013-08-05 18:14:00,90.3,42.4,29.81,West,269,2.0,4.0,19,0.00,,,0.00,Wunderground v.1.15,2013-08-06 01:14:00,
2013-08-05 18:17:00,89.3,44.2,29.81,West,270,3.0,-999.0,21,0.00,,,0.00,Wunderground v.1.15,2013-08-06 01:17:00,
2013-08-05 18:20:00,90.0,40.8,29.81,West,261,2.0,6.0,18,0.00,,,0.00,Wunderground v.1.15,2013-08-06 01:20:00,
2013-08-05 18:22:00,89.3,44.2,29.81,West,270,3.0,-999.0,21,0.00,,,0.00,Wunderground v.1.15,2013-08-06 01:22:00,
2013-08-05 18:25:00,89.7,43.3,29.81,WNW,301,2.0,6.0,20,0.00,,,0.00,Wunderground v.1.15,2013-08-06 01:25:00,
2013-08-05 18:27:00,89.3,44.2,29.81,West,270,3.0,-999.0,21,0.00,,,0.00,Wunderground v.1.15,2013-08-06 01:27:00,
2013-08-05 18:31:00,89.4,43.0,29.81,West,273,3.0,5.0,20,0.00,,,0.00,Wunderground v.1.15,2013-08-06 01:31:00,
2013-08-05 18:32:00,89.3,44.2,29.81,West,270,3.0,-999.0,21,0.00,,,0.00,Wunderground v.1.15,2013-08-06 01:32:00,
2013-08-05 18:37:00,89.1,44.1,29.81,WSW,253,3.0,8.0,21,0.00,,,0.00,Wunderground v.1.15,2013-08-06 01:37:00,
2013-08-05 18:42:00,88.8,43.8,29.82,SW,233,4.0,9.0,21,0.00,,,0.00,Wunderground v.1.15,2013-08-06 01:42:00,
2013-08-05 18:47:00,88.4,44.7,29.82,WSW,242,4.0,9.0,22,0.00,,,0.00,Wunderground v.1.15,2013-08-06 01:47:00,
2013-08-05 18:52:00,87.4,46.2,29.82,West,270,3.0,-999.0,24,0.00,,,0.00,Wunderground v.1.15,2013-08-06 01:52:00,
2013-08-05 18:53:00,88.0,44.4,29.82,WSW,253,3.0,4.0,22,0.00,,,0.00,Wunderground v.1.15,2013-08-06 01:53:00,
2013-08-05 18:57:00,87.4,46.2,29.82,West,270,3.0,-999.0,24,0.00,,,0.00,Wunderground v.1.15,2013-08-06 01:57:00,
2013-08-05 18:58:00,87.7,45.3,29.82,WSW,250,3.0,5.0,23,0.00,,,0.00,Wunderground v.1.15,2013-08-06 01:58:00,
2013-08-05 19:02:00,87.4,46.2,29.82,West,270,3.0,-999.0,24,0.00,,,0.00,Wunderground v.1.15,2013-08-06 02:02:00,
2013-08-05 19:04:00,87.3,45.0,29.82,WNW,294,2.0,5.0,23,0.00,,,0.00,Wunderground v.1.15,2013-08-06 02:04:00,
2013-08-05 19:07:00,87.4,46.2,29.82,West,270,3.0,-999.0,24,0.00,,,0.00,Wunderground v.1.15,2013-08-06 02:07:00,
2013-08-05 19:09:00,87.1,44.8,29.82,WSW,258,3.0,7.0,23,0.00,,,0.00,Wunderground v.1.15,2013-08-06 02:09:00,
2013-08-05 19:12:00,87.4,46.2,29.82,West,270,3.0,-999.0,24,0.00,,,0.00,Wunderground v.1.15,2013-08-06 02:12:00,
2013-08-05 19:15:00,86.8,45.7,29.82,SW,223,3.0,4.0,24,0.00,,,0.00,Wunderground v.1.15,2013-08-06 02:15:00,
2013-08-05 19:17:00,85.6,43.5,29.82,SW,225,2.0,-999.0,23,0.00,,,0.00,Wunderground v.1.15,2013-08-06 02:17:00,
2013-08-05 19:20:00,86.5,44.3,29.82,WSW,238,2.0,2.0,23,0.00,,,0.00,Wunderground v.1.15,2013-08-06 02:20:00,
2013-08-05 19:22:00,85.6,43.5,29.82,SW,225,2.0,-999.0,23,0.00,,,0.00,Wunderground v.1.15,2013-08-06 02:22:00,
2013-08-05 19:26:00,86.2,44.0,29.82,SSW,211,2.0,3.0,23,0.00,,,0.00,Wunderground v.1.15,2013-08-06 02:26:00,
2013-08-05 19:27:00,85.6,43.5,29.82,SW,225,2.0,-999.0,23,0.00,,,0.00,Wunderground v.1.15,2013-08-06 02:27:00,
2013-08-05 19:32:00,85.7,43.6,29.82,SSE,168,2.0,9.0,23,0.00,,,0.00,Wunderground v.1.15,2013-08-06 02:32:00,
2013-08-05 19:37:00,85.3,42.1,29.82,SW,216,2.0,9.0,22,0.00,,,0.00,Wunderground v.1.15,2013-08-06 02:37:00,
2013-08-05 19:42:00,85.6,43.5,29.82,SW,225,2.0,-999.0,23,0.00,,,0.00,Wunderground v.1.15,2013-08-06 02:42:00,
2013-08-05 19:44:00,84.8,42.9,29.83,SW,224,3.0,4.0,23,0.00,,,0.00,Wunderground v.1.15,2013-08-06 02:44:00,
2013-08-05 19:47:00,83.3,43.8,29.83,SW,225,2.0,-999.0,25,0.00,,,0.00,Wunderground v.1.15,2013-08-06 02:47:00,
2013-08-05 19:50:00,84.5,43.7,29.83,SW,222,3.0,3.0,24,0.00,,,0.00,Wunderground v.1.15,2013-08-06 02:50:00,
2013-08-05 19:52:00,83.3,43.8,29.83,SW,225,2.0,-999.0,25,0.00,,,0.00,Wunderground v.1.15,2013-08-06 02:52:00,
2013-08-05 19:56:00,84.0,43.3,29.83,SSW,209,1.0,3.0,24,0.00,,,0.00,Wunderground v.1.15,2013-08-06 02:56:00,
2013-08-05 19:57:00,83.3,43.8,29.83,SW,225,2.0,-999.0,25,0.00,,,0.00,Wunderground v.1.15,2013-08-06 02:57:00,
2013-08-05 20:01:00,83.5,45.0,29.83,SSW,204,1.0,3.0,26,0.00,,,0.00,Wunderground v.1.15,2013-08-06 03:01:00,
2013-08-05 20:02:00,83.3,43.8,29.83,SW,225,2.0,-999.0,25,0.00,,,0.00,Wunderground v.1.15,2013-08-06 03:02:00,
2013-08-05 20:07:00,83.0,44.6,29.83,SW,224,1.0,3.0,26,0.00,,,0.00,Wunderground v.1.15,2013-08-06 03:07:00,
2013-08-05 20:12:00,82.6,44.2,29.83,SW,234,2.0,2.0,26,0.00,,,0.00,Wunderground v.1.15,2013-08-06 03:12:00,
2013-08-05 20:17:00,82.1,45.8,29.83,SW,225,1.0,2.0,28,0.00,,,0.00,Wunderground v.1.15,2013-08-06 03:17:00,
2013-08-05 20:22:00,80.5,47.1,29.83,SSW,203,1.0,-999.0,31,0.00,,,0.00,Wunderground v.1.15,2013-08-06 03:22:00,
2013-08-05 20:23:00,81.6,46.3,29.83,WSW,239,0.0,2.0,29,0.00,,,0.00,Wunderground v.1.15,2013-08-06 03:23:00,
2013-08-05 20:27:00,80.5,47.1,29.83,SSW,203,1.0,-999.0,31,0.00,,,0.00,Wunderground v.1.15,2013-08-06 03:27:00,
2013-08-05 20:29:00,80.9,46.6,29.83,SSW,197,0.0,2.0,30,0.00,,,0.00,Wunderground v.1.15,2013-08-06 03:29:00,
2013-08-05 20:32:00,80.5,47.1,29.83,SSW,203,1.0,-999.0,31,0.00,,,0.00,Wunderground v.1.15,2013-08-06 03:32:00,
2013-08-05 20:34:00,80.4,47.0,29.83,SSW,197,0.0,9.0,31,0.00,,,0.00,Wunderground v.1.15,2013-08-06 03:34:00,
2013-08-05 20:37:00,80.5,47.1,29.83,SSW,203,1.0,-999.0,31,0.00,,,0.00,Wunderground v.1.15,2013-08-06 03:37:00,
2013-08-05 20:39:00,79.8,45.6,29.84,SSW,199,0.0,9.0,30,0.00,,,0.00,Wunderground v.1.15,2013-08-06 03:39:00,
2013-08-05 20:42:00,80.5,47.1,29.83,SSW,203,1.0,-999.0,31,0.00,,,0.00,Wunderground v.1.15,2013-08-06 03:42:00,
2013-08-05 20:45:00,79.4,47.0,29.84,SSW,199,0.0,0.0,32,0.00,,,0.00,Wunderground v.1.15,2013-08-06 03:45:00,
2013-08-05 20:47:00,77.4,46.0,29.84,South,180,0.0,-999.0,33,0.00,,,0.00,Wunderground v.1.15,2013-08-06 03:47:00,
2013-08-05 20:51:00,78.9,47.3,29.84,SSW,199,0.0,0.0,33,0.00,,,0.00,Wunderground v.1.15,2013-08-06 03:51:00,
2013-08-05 20:52:00,77.4,46.0,29.84,South,180,0.0,-999.0,33,0.00,,,0.00,Wunderground v.1.15,2013-08-06 03:52:00,
2013-08-05 20:56:00,78.2,46.7,29.84,South,184,0.0,2.0,33,0.00,,,0.00,Wunderground v.1.15,2013-08-06 03:56:00,
2013-08-05 20:57:00,77.4,46.0,29.84,South,180,0.0,-999.0,33,0.00,,,0.00,Wunderground v.1.15,2013-08-06 03:57:00,
2013-08-05 21:01:00,77.6,46.2,29.84,South,177,0.0,0.0,33,0.00,,,0.00,Wunderground v.1.15,2013-08-06 04:01:00,
2013-08-05 21:02:00,77.6,46.2,29.84,South,177,0.0,0.0,33,0.00,,,0.00,Wunderground v.1.15,2013-08-06 04:02:00,
2013-08-05 21:07:00,77.0,46.5,29.85,SSE,164,0.0,1.0,34,0.00,,,0.00,Wunderground v.1.15,2013-08-06 04:07:00,
2013-08-05 21:08:00,76.9,46.4,29.84,SSE,163,0.0,1.0,34,0.00,,,0.00,Wunderground v.1.15,2013-08-06 04:08:00,
2013-08-05 21:09:00,76.8,46.3,29.85,South,172,0.0,1.0,34,0.00,,,0.00,Wunderground v.1.15,2013-08-06 04:09:00,
2013-08-05 21:11:00,76.7,47.0,29.84,South,173,0.0,3.0,35,0.00,,,0.00,Wunderground v.1.15,2013-08-06 04:11:00,
2013-08-05 21:12:00,77.4,46.0,29.84,South,180,0.0,-999.0,33,0.00,,,0.00,Wunderground v.1.15,2013-08-06 04:12:00,
2013-08-05 21:16:00,76.2,47.3,29.85,SSE,166,1.0,3.0,36,0.00,,,0.00,Wunderground v.1.15,2013-08-06 04:16:00,
2013-08-05 21:17:00,75.2,47.8,29.85,SSE,158,1.0,-999.0,38,0.00,,,0.00,Wunderground v.1.15,2013-08-06 04:17:00,
2013-08-05 21:21:00,76.0,47.8,29.85,SSE,166,1.0,1.0,37,0.00,,,0.00,Wunderground v.1.15,2013-08-06 04:21:00,
2013-08-05 21:22:00,75.2,47.8,29.85,SSE,158,1.0,-999.0,38,0.00,,,0.00,Wunderground v.1.15,2013-08-06 04:22:00,
2013-08-05 21:26:00,75.6,48.2,29.85,SSE,160,1.0,1.0,38,0.00,,,0.00,Wunderground v.1.15,2013-08-06 04:26:00,
2013-08-05 21:27:00,75.2,47.8,29.85,SSE,158,1.0,-999.0,38,0.00,,,0.00,Wunderground v.1.15,2013-08-06 04:27:00,
2013-08-05 21:31:00,75.3,47.9,29.85,SSE,154,1.0,2.0,38,0.00,,,0.00,Wunderground v.1.15,2013-08-06 04:31:00,
2013-08-05 21:32:00,75.2,47.8,29.85,SSE,158,1.0,-999.0,38,0.00,,,0.00,Wunderground v.1.15,2013-08-06 04:32:00,
2013-08-05 21:36:00,75.1,48.4,29.85,SSE,160,1.0,6.0,39,0.00,,,0.00,Wunderground v.1.15,2013-08-06 04:36:00,
2013-08-05 21:37:00,75.2,47.8,29.85,SSE,158,1.0,-999.0,38,0.00,,,0.00,Wunderground v.1.15,2013-08-06 04:37:00,
2013-08-05 21:41:00,74.9,48.3,29.85,SSE,160,1.0,1.0,39,0.00,,,0.00,Wunderground v.1.15,2013-08-06 04:41:00,
2013-08-05 21:42:00,75.2,47.8,29.85,SSE,158,1.0,-999.0,38,0.00,,,0.00,Wunderground v.1.15,2013-08-06 04:42:00,
2013-08-05 21:46:00,74.7,48.8,29.85,SSE,166,0.0,2.0,40,0.00,,,0.00,Wunderground v.1.15,2013-08-06 04:46:00,
2013-08-05 21:47:00,74.0,48.1,29.86,SSE,158,1.0,-999.0,40,0.00,,,0.00,Wunderground v.1.15,2013-08-06 04:47:00,
2013-08-05 21:52:00,74.3,48.4,29.85,South,174,0.0,1.0,40,0.00,,,0.00,Wunderground v.1.15,2013-08-06 04:52:00,
2013-08-05 21:57:00,74.1,48.2,29.86,SSE,160,1.0,3.0,40,0.00,,,0.00,Wunderground v.1.15,2013-08-06 04:57:00,
2013-08-05 22:02:00,74.0,48.1,29.86,SSE,158,1.0,-999.0,40,0.00,,,0.00,Wunderground v.1.15,2013-08-06 05:02:00,
2013-08-05 22:03:00,74.0,48.1,29.86,SSE,156,2.0,3.0,40,0.00,,,0.00,Wunderground v.1.15,2013-08-06 05:03:00,
2013-08-05 22:07:00,74.0,48.1,29.86,SSE,158,1.0,-999.0,40,0.00,,,0.00,Wunderground v.1.15,2013-08-06 05:07:00,
2013-08-05 22:09:00,73.9,48.1,29.86,SSW,201,2.0,5.0,40,0.00,,,0.00,Wunderground v.1.15,2013-08-06 05:09:00,
2013-08-05 22:12:00,74.0,48.1,29.86,SSE,158,1.0,-999.0,40,0.00,,,0.00,Wunderground v.1.15,2013-08-06 05:12:00,
2013-08-05 22:14:00,73.8,48.6,29.86,SSE,168,2.0,3.0,41,0.00,,,0.00,Wunderground v.1.15,2013-08-06 05:14:00,
2013-08-05 22:17:00,72.2,48.5,29.86,South,180,2.0,-999.0,43,0.00,,,0.00,Wunderground v.1.15,2013-08-06 05:17:00,
2013-08-05 22:19:00,73.5,49.0,29.86,South,173,2.0,3.0,42,0.00,,,0.00,Wunderground v.1.15,2013-08-06 05:19:00,
2013-08-05 22:22:00,72.2,48.5,29.86,South,180,2.0,-999.0,43,0.00,,,0.00,Wunderground v.1.15,2013-08-06 05:22:00,
2013-08-05 22:24:00,73.0,48.5,29.86,South,191,2.0,8.0,42,0.00,,,0.00,Wunderground v.1.15,2013-08-06 05:24:00,
2013-08-05 22:27:00,72.2,48.5,29.86,South,180,2.0,-999.0,43,0.00,,,0.00,Wunderground v.1.15,2013-08-06 05:27:00,
2013-08-05 22:29:00,72.6,48.8,29.86,SSW,197,3.0,8.0,43,0.00,,,0.00,Wunderground v.1.15,2013-08-06 05:29:00,
2013-08-05 22:32:00,72.2,48.5,29.86,South,180,2.0,-999.0,43,0.00,,,0.00,Wunderground v.1.15,2013-08-06 05:32:00,
2013-08-05 22:35:00,72.0,48.3,29.86,SSW,194,2.0,4.0,43,0.00,,,0.00,Wunderground v.1.15,2013-08-06 05:35:00,
2013-08-05 22:37:00,72.2,48.5,29.86,South,180,2.0,-999.0,43,0.00,,,0.00,Wunderground v.1.15,2013-08-06 05:37:00,
2013-08-05 22:40:00,71.7,48.6,29.86,SSW,199,2.0,2.0,44,0.00,,,0.00,Wunderground v.1.15,2013-08-06 05:40:00,
2013-08-05 22:42:00,72.2,48.5,29.86,South,180,2.0,-999.0,43,0.00,,,0.00,Wunderground v.1.15,2013-08-06 05:42:00,
2013-08-05 22:46:00,71.3,49.4,29.86,South,179,3.0,7.0,46,0.00,,,0.00,Wunderground v.1.15,2013-08-06 05:46:00,
2013-08-05 22:47:00,70.1,50.6,29.86,South,180,3.0,-999.0,50,0.00,,,0.00,Wunderground v.1.15,2013-08-06 05:47:00,
2013-08-05 22:51:00,71.1,49.8,29.86,SSE,164,3.0,3.0,47,0.00,,,0.00,Wunderground v.1.15,2013-08-06 05:51:00,
2013-08-05 22:52:00,70.1,50.6,29.86,South,180,3.0,-999.0,50,0.00,,,0.00,Wunderground v.1.15,2013-08-06 05:52:00,
2013-08-05 22:57:00,70.7,50.0,29.86,SSW,210,3.0,8.0,48,0.00,,,0.00,Wunderground v.1.15,2013-08-06 05:57:00,
2013-08-05 23:02:00,70.1,50.6,29.86,South,180,3.0,-999.0,50,0.00,,,0.00,Wunderground v.1.15,2013-08-06 06:02:00,
2013-08-05 23:03:00,70.2,50.7,29.86,SSW,208,3.0,7.0,50,0.00,,,0.00,Wunderground v.1.15,2013-08-06 06:03:00,
2013-08-05 23:07:00,70.1,50.6,29.86,South,180,3.0,-999.0,50,0.00,,,0.00,Wunderground v.1.15,2013-08-06 06:07:00,
2013-08-05 23:08:00,69.7,50.8,29.87,SSW,203,3.0,7.0,51,0.00,,,0.00,Wunderground v.1.15,2013-08-06 06:08:00,
2013-08-05 23:12:00,70.1,50.6,29.86,South,180,3.0,-999.0,50,0.00,,,0.00,Wunderground v.1.15,2013-08-06 06:12:00,
2013-08-05 23:13:00,69.3,50.9,29.87,South,191,3.0,3.0,52,0.00,,,0.00,Wunderground v.1.15,2013-08-06 06:13:00,
2013-08-05 23:17:00,67.9,51.1,29.87,South,180,2.0,-999.0,55,0.00,,,0.00,Wunderground v.1.15,2013-08-06 06:17:00,
2013-08-05 23:19:00,68.8,50.5,29.86,SSE,152,2.0,3.0,52,0.00,,,0.00,Wunderground v.1.15,2013-08-06 06:19:00,
2013-08-05 23:22:00,67.9,51.1,29.87,South,180,2.0,-999.0,55,0.00,,,0.00,Wunderground v.1.15,2013-08-06 06:22:00,
2013-08-05 23:24:00,68.5,50.7,29.87,SSW,194,1.0,4.0,53,0.00,,,0.00,Wunderground v.1.15,2013-08-06 06:24:00,
2013-08-05 23:27:00,67.9,51.1,29.87,South,180,2.0,-999.0,55,0.00,,,0.00,Wunderground v.1.15,2013-08-06 06:27:00,
2013-08-05 23:29:00,68.1,50.8,29.87,SSW,205,2.0,4.0,54,0.00,,,0.00,Wunderground v.1.15,2013-08-06 06:29:00,
2013-08-05 23:32:00,67.9,51.1,29.87,South,180,2.0,-999.0,55,0.00,,,0.00,Wunderground v.1.15,2013-08-06 06:32:00,
2013-08-05 23:35:00,67.8,51.0,29.87,South,176,2.0,9.0,55,0.00,,,0.00,Wunderground v.1.15,2013-08-06 06:35:00,
2013-08-05 23:37:00,67.9,51.1,29.87,South,180,2.0,-999.0,55,0.00,,,0.00,Wunderground v.1.15,2013-08-06 06:37:00,
2013-08-05 23:40:00,67.4,51.6,29.87,SSE,163,3.0,3.0,57,0.00,,,0.00,Wunderground v.1.15,2013-08-06 06:40:00,
2013-08-05 23:42:00,67.9,51.1,29.87,South,180,2.0,-999.0,55,0.00,,,0.00,Wunderground v.1.15,2013-08-06 06:42:00,
2013-08-05 23:46:00,67.1,51.4,29.87,South,172,3.0,6.0,57,0.00,,,0.00,Wunderground v.1.15,2013-08-06 06:46:00,
2013-08-05 23:47:00,66.5,51.7,29.87,South,180,2.0,-999.0,59,0.00,,,0.00,Wunderground v.1.15,2013-08-06 06:47:00,
2013-08-05 23:52:00,66.9,51.6,29.87,SSW,195,2.0,6.0,58,0.00,,,0.00,Wunderground v.1.15,2013-08-06 06:52:00,
2013-08-05 23:57:00,66.7,51.5,29.87,SSE,168,2.0,6.0,58,0.00,,,0.00,Wunderground v.1.15,2013-08-06 06:57:00,